Flag for Puerto Rico Weather past 2 weeks in Caguas, Puerto Rico

Now
82 °F

Passing clouds.


Feels Like: 89 °F
Forecast: 76 / 85 °F
Wind: 5 mph from East

Location: Luis Munoz Marin

Current Time: Aug 29, 2014 at 8:35:09 PM

Latest Report: Aug 29, 2014 at 7:56 PM


Visibility: 10 mi

Pressure: 30.02 "Hg

Humidity: 82%

Dew point: 76 °F

Location of CaguasLocation

Historic Weather in Caguas — Graph

°F

Caguas temperature yesterday

Maximum temperature yesterday: 90 °F (at 11:56 AM)
Minimum temperature yesterday: 81 °F (at 11:56 PM)
Average temperature yesterday: 85 °F

Past Weeks' High & Low Weather Summary

 TemperatureHumidityPressure
High93 °F (Aug 26, 12:56 PM)100% (Aug 16, 10:56 AM)30.09 "Hg (Aug 16, 10:56 AM)
Low76 °F (Aug 24, 5:56 AM)45% (Aug 26, 4:56 PM)29.83 "Hg (Aug 22, 5:56 PM)
Average83 °F81%29.97 "Hg
* Reported Aug 14 6:56 PM — Aug 29 6:56 PM, Caguas, Weather by CustomWeather, © 2014

Note: Actual official high and low records may vary slightly from our data, if they occured in-between our weather recording intervals... More about our weather records

Advertising

Caguas weather history for previous 24 hours

 ConditionsComfort  
Time TempWeatherWind HumidityBarometerVisibility
6:56 PM
Aug 29
81 °FScattered clouds.6 mph85%30.01 "Hg10 mi
5:56 PM82 °FPartly sunny.6 mph82%30.00 "Hg10 mi
4:56 PM82 °FBroken clouds.8 mph79%29.99 "Hg10 mi
2:56 PM81 °FScattered clouds.7 mph77%29.99 "Hg10 mi
1:56 PM85 °FScattered clouds.15 mph75%30.01 "Hg10 mi
12:56 PM87 °FBroken clouds.12 mph67%30.02 "Hg10 mi
11:56 AM84 °FBroken clouds.8 mph80%30.04 "Hg10 mi
10:56 AM85 °FBroken clouds.6 mph75%30.04 "Hg10 mi
9:56 AM83 °FBroken clouds.6 mph77%30.05 "Hg10 mi
8:56 AM82 °FBroken clouds.No wind79%30.03 "Hg10 mi
7:56 AM81 °FBroken clouds.No wind79%30.03 "Hg10 mi
6:56 AM79 °FPartly cloudy.No wind84%30.01 "Hg10 mi
5:56 AM78 °FPassing clouds.3 mph87%30.00 "Hg10 mi
4:56 AM78 °FPassing clouds.No wind87%29.99 "Hg10 mi
3:56 AM78 °FPassing clouds.3 mph87%29.99 "Hg10 mi
2:56 AM79 °FPassing clouds.No wind88%30.00 "Hg10 mi
1:56 AM80 °FPassing clouds.5 mph81%30.01 "Hg10 mi
12:56 AM81 °FPassing clouds.No wind79%30.02 "Hg10 mi
11:56 PM
Aug 28
81 °FPassing clouds.3 mph79%30.03 "Hg10 mi
10:56 PM82 °FPassing clouds.3 mph77%30.03 "Hg10 mi
9:56 PM83 °FPassing clouds.3 mph74%30.03 "Hg10 mi
8:56 PM83 °FPassing clouds.No wind74%30.01 "Hg10 mi
Weather by CustomWeather, © 2014

See weather overviewHow to use our weather pages